Wetterdaten: Sonntag, 01.04.2007
Datum Zeit Temp. a Sch. Temp. a Son. Temp. a Bod. Feuchte a. Luftdruck Regen Wind Richtung Richtung Sonnenschein Helligkeit Taupunkt Windchill
01.04.2007 00:02 10,8 C 10,5 C 9,0 C 37 % 1019 hPa 0,0 l/m 5,3 m/s (3 Bft) O-NO45 75 0 min 0 lux -3,3 C 4,6 C
01.04.2007 00:07 10,8 C 10,5 C 9,0 C 37 % 1020 hPa 0,0 l/m 5,4 m/s (3 Bft) O-NO45 75 0 min 0 lux -3,3 C 4,5 C
01.04.2007 00:12 10,8 C 10,5 C 9,0 C 36 % 1020 hPa 0,0 l/m 6,7 m/s (4 Bft) O67.5 80 0 min 0 lux -3,7 C 3,2 C
01.04.2007 00:17 10,5 C 10,3 C 8,7 C 37 % 1020 hPa 0,0 l/m 4,6 m/s (3 Bft) O22.5 80 0 min 0 lux -3,6 C 5,2 C
01.04.2007 00:22 10,5 C 10,3 C 8,5 C 37 % 1020 hPa 0,0 l/m 4,9 m/s (3 Bft) O-NO45 75 0 min 0 lux -3,6 C 4,8 C
01.04.2007 00:27 10,4 C 10,2 C 8,3 C 37 % 1020 hPa 0,0 l/m 4,9 m/s (3 Bft) O-NO45 75 0 min 0 lux -3,6 C 4,7 C
01.04.2007 00:32 10,6 C 10,1 C 8,5 C 37 % 1020 hPa 0,0 l/m 4,4 m/s (3 Bft) O45 90 0 min 0 lux -3,5 C 5,6 C
01.04.2007 00:37 10,6 C 10,2 C 8,5 C 36 % 1020 hPa 0,0 l/m 6,8 m/s (4 Bft) O45 90 0 min 0 lux -3,8 C 2,7 C
01.04.2007 00:42 10,6 C 10,1 C 8,7 C 36 % 1020 hPa 0,0 l/m 4,7 m/s (3 Bft) O67.5 85 0 min 0 lux -3,8 C 5,1 C
01.04.2007 00:47 10,5 C 10,1 C 8,7 C 36 % 1020 hPa 0,0 l/m 4,5 m/s (3 Bft) O22.5 95 0 min 0 lux -3,9 C 5,3 C
01.04.2007 00:52 10,6 C 10,1 C 8,8 C 36 % 1020 hPa 0,0 l/m 5,4 m/s (3 Bft) O67.5 85 0 min 0 lux -3,8 C 4,2 C
01.04.2007 00:57 10,4 C 10,1 C 8,8 C 37 % 1020 hPa 0,0 l/m 4,1 m/s (3 Bft) O45 100 0 min 0 lux -3,6 C 5,7 C
01.04.2007 01:02 10,5 C 10,2 C 8,8 C 37 % 1020 hPa 0,0 l/m 5,2 m/s (3 Bft) O-NO67.5 75 0 min 0 lux -3,6 C 4,4 C
01.04.2007 01:07 10,5 C 10,1 C 9,0 C 37 % 1020 hPa 0,0 l/m 5,1 m/s (3 Bft) O-SO22.5 120 0 min 0 lux -3,6 C 4,5 C
01.04.2007 01:12 10,6 C 10,2 C 8,9 C 36 % 1020 hPa 0,0 l/m 5,6 m/s (4 Bft) O-SO45 105 0 min 0 lux -3,8 C 4,0 C
01.04.2007 01:17 10,6 C 10,2 C 8,8 C 36 % 1020 hPa 0,0 l/m 6,2 m/s (4 Bft) NO67.5 55 0 min 0 lux -3,8 C 3,4 C
01.04.2007 01:22 10,7 C 10,2 C 8,9 C 35 % 1020 hPa 0,0 l/m 5,3 m/s (3 Bft) O67.5 90 0 min 0 lux -4,1 C 4,5 C
01.04.2007 01:27 10,4 C 10,1 C 8,8 C 36 % 1020 hPa 0,0 l/m 6,0 m/s (4 Bft) O-SO22.5 110 0 min 0 lux -4,0 C 3,3 C
01.04.2007 01:32 10,5 C 10,1 C 8,8 C 35 % 1020 hPa 0,0 l/m 4,1 m/s (3 Bft) O45 90 0 min 0 lux -4,3 C 5,9 C
01.04.2007 01:37 10,4 C 10,2 C 8,8 C 36 % 1020 hPa 0,0 l/m 4,6 m/s (3 Bft) O-SO22.5 110 0 min 0 lux -4,0 C 5,1 C
01.04.2007 01:42 10,4 C 10,2 C 8,9 C 35 % 1020 hPa 0,0 l/m 5,7 m/s (4 Bft) O67.5 80 0 min 0 lux -4,4 C 3,6 C
01.04.2007 01:47 10,4 C 10,1 C 9,0 C 35 % 1020 hPa 0,0 l/m 7,3 m/s (4 Bft) O45 95 0 min 0 lux -4,4 C 2,0 C
01.04.2007 01:52 10,2 C 10,1 C 8,8 C 35 % 1020 hPa 0,0 l/m 2,1 m/s (2 Bft) O-SO45 105 0 min 0 lux -4,6 C 9,3 C
01.04.2007 01:57 10,3 C 10,0 C 8,7 C 35 % 1020 hPa 0,0 l/m 6,3 m/s (4 Bft) O45 85 0 min 0 lux -4,5 C 2,9 C
01.04.2007 02:02 10,2 C 9,9 C 8,6 C 35 % 1020 hPa 0,0 l/m 5,9 m/s (4 Bft) O45 90 0 min 0 lux -4,6 C 3,1 C
01.04.2007 02:07 10,2 C 9,8 C 8,5 C 35 % 1020 hPa 0,0 l/m 4,4 m/s (3 Bft) O-SO22.5 105 0 min 0 lux -4,6 C 5,0 C
01.04.2007 02:12 10,2 C 9,8 C 8,6 C 35 % 1020 hPa 0,0 l/m 6,1 m/s (4 Bft) O-NO67.5 75 0 min 0 lux -4,6 C 3,0 C
01.04.2007 02:17 10,0 C 9,7 C 8,3 C 35 % 1020 hPa 0,0 l/m 2,9 m/s (2 Bft) O67.5 80 0 min 0 lux -4,7 C 7,4 C
01.04.2007 02:22 9,9 C 9,7 C 8,1 C 35 % 1020 hPa 0,0 l/m 4,6 m/s (3 Bft) O-SO22.5 110 0 min 0 lux -4,8 C 4,4 C
01.04.2007 02:27 9,5 C 9,6 C 7,9 C 36 % 1020 hPa 0,0 l/m 5,4 m/s (3 Bft) O45 100 0 min 0 lux -4,8 C 2,8 C
01.04.2007 02:32 9,6 C 9,4 C 7,9 C 36 % 1020 hPa 0,0 l/m 5,9 m/s (4 Bft) O67.5 80 0 min 0 lux -4,7 C 2,4 C
01.04.2007 02:37 9,5 C 9,3 C 7,9 C 35 % 1020 hPa 0,0 l/m 5,4 m/s (3 Bft) O22.5 90 0 min 0 lux -5,2 C 2,8 C
01.04.2007 02:42 9,6 C 9,3 C 7,8 C 35 % 1020 hPa 0,0 l/m 3,7 m/s (3 Bft) O45 85 0 min 0 lux -5,1 C 5,4 C
01.04.2007 02:47 9,6 C 9,2 C 7,7 C 35 % 1020 hPa 0,0 l/m 5,7 m/s (4 Bft) O-SO45 105 0 min 0 lux -5,1 C 2,6 C
01.04.2007 02:52 9,3 C 9,1 C 7,8 C 35 % 1021 hPa 0,0 l/m 6,0 m/s (4 Bft) O-SO22.5 105 0 min 0 lux -5,4 C 1,9 C
01.04.2007 02:57 9,0 C 9,1 C 7,5 C 36 % 1020 hPa 0,0 l/m 3,1 m/s (2 Bft) O45 90 0 min 0 lux -5,3 C 5,7 C
01.04.2007 03:02 9,0 C 9,0 C 7,6 C 36 % 1020 hPa 0,0 l/m 3,1 m/s (2 Bft) O45 90 0 min 0 lux -5,3 C 5,7 C
01.04.2007 03:07 9,1 C 8,8 C 7,6 C 35 % 1021 hPa 0,0 l/m 3,7 m/s (3 Bft) O-NO45 75 0 min 0 lux -5,5 C 4,8 C
01.04.2007 03:12 8,9 C 8,8 C 7,2 C 36 % 1020 hPa 0,0 l/m 2,9 m/s (2 Bft) O45 90 0 min 0 lux -5,3 C 6,0 C
01.04.2007 03:17 8,7 C 8,7 C 7,2 C 37 % 1021 hPa 0,0 l/m 3,8 m/s (3 Bft) O22.5 90 0 min 0 lux -5,2 C 4,1 C
01.04.2007 03:22 8,9 C 8,6 C 7,4 C 36 % 1021 hPa 0,0 l/m 4,8 m/s (3 Bft) O-SO45 115 0 min 0 lux -5,3 C 2,9 C
01.04.2007 03:27 8,9 C 8,5 C 7,3 C 36 % 1021 hPa 0,0 l/m 6,1 m/s (4 Bft) O67.5 95 0 min 0 lux -5,3 C 1,2 C
01.04.2007 03:32 8,8 C 8,5 C 7,1 C 36 % 1021 hPa 0,0 l/m 5,2 m/s (3 Bft) O67.5 95 0 min 0 lux -5,4 C 2,2 C
01.04.2007 03:37 8,9 C 8,4 C 7,2 C 36 % 1021 hPa 0,0 l/m 3,9 m/s (3 Bft) O67.5 95 0 min 0 lux -5,3 C 4,3 C
01.04.2007 03:42 8,4 C 8,2 C 6,8 C 37 % 1021 hPa 0,0 l/m 3,2 m/s (2 Bft) O-NO22.5 75 0 min 0 lux -5,4 C 4,9 C
01.04.2007 03:47 8,5 C 8,1 C 6,9 C 37 % 1021 hPa 0,0 l/m 4,4 m/s (3 Bft) O45 95 0 min 0 lux -5,3 C 2,9 C
01.04.2007 03:52 8,4 C 8,1 C 7,0 C 37 % 1021 hPa 0,0 l/m 2,3 m/s (2 Bft) O22.5 100 0 min 0 lux -5,4 C 7,0 C
01.04.2007 03:57 7,9 C 7,9 C 6,7 C 39 % 1021 hPa 0,0 l/m 2,3 m/s (2 Bft) O-SO22.5 115 0 min 0 lux -5,2 C 6,5 C
01.04.2007 04:02 8,1 C 7,9 C 6,7 C 39 % 1021 hPa 0,0 l/m 3,3 m/s (2 Bft) O45 95 0 min 0 lux -5,0 C 4,4 C
01.04.2007 04:07 7,9 C 7,7 C 6,6 C 40 % 1021 hPa 0,0 l/m 2,9 m/s (2 Bft) O-SO22.5 115 0 min 0 lux -4,8 C 5,0 C
01.04.2007 04:12 8,2 C 7,7 C 6,6 C 39 % 1021 hPa 0,0 l/m 3,4 m/s (2 Bft) O-SO22.5 115 0 min 0 lux -4,9 C 4,3 C
01.04.2007 04:17 7,7 C 7,6 C 6,3 C 40 % 1021 hPa 0,0 l/m 2,8 m/s (2 Bft) O-SO22.5 120 0 min 0 lux -5,0 C 5,0 C
01.04.2007 04:22 7,7 C 7,5 C 6,1 C 40 % 1021 hPa 0,0 l/m 3,4 m/s (3 Bft) O-NO67.5 75 0 min 0 lux -5,0 C 3,7 C
01.04.2007 04:27 7,6 C 7,4 C 6,2 C 41 % 1021 hPa 0,0 l/m 1,7 m/s (2 Bft) O22.5 85 0 min 0 lux -4,8 C 7,6 C
01.04.2007 04:32 7,2 C 7,4 C 6,0 C 41 % 1021 hPa 0,0 l/m 0,1 m/s (0 Bft) O 90 0 min 0 lux -5,2 C 7,2 C
01.04.2007 04:37 7,1 C 7,4 C 6,0 C 42 % 1021 hPa 0,0 l/m 2,5 m/s (2 Bft) NO67.5 50 0 min 0 lux -4,9 C 5,1 C
01.04.2007 04:42 7,1 C 7,2 C 5,7 C 42 % 1021 hPa 0,0 l/m 2,1 m/s (2 Bft) O22.5 80 0 min 0 lux -4,9 C 6,2 C
01.04.2007 04:47 7,0 C 7,2 C 5,4 C 42 % 1021 hPa 0,0 l/m 0,0 m/s (0 Bft) N-NO 15 0 min 0 lux -5,0 C 7,0 C
01.04.2007 04:52 6,7 C 7,1 C 5,3 C 43 % 1021 hPa 0,0 l/m 0,1 m/s (0 Bft) SO 135 0 min 0 lux -5,0 C 6,7 C
01.04.2007 04:57 6,4 C 7,0 C 5,1 C 44 % 1021 hPa 0,0 l/m 0,1 m/s (0 Bft) SO 135 0 min 0 lux -4,9 C 6,4 C
01.04.2007 05:02 6,1 C 6,9 C 5,2 C 45 % 1021 hPa 0,0 l/m 0,0 m/s (0 Bft) SO 130 0 min 0 lux -4,9 C 6,1 C
01.04.2007 05:07 6,6 C 6,8 C 4,9 C 45 % 1021 hPa 0,0 l/m 1,3 m/s (1 Bft) S-SW 200 0 min 0 lux -4,5 C 6,6 C
01.04.2007 05:12 6,9 C 6,8 C 5,2 C 45 % 1021 hPa 0,0 l/m 0,5 m/s (1 Bft) NW22.5 310 0 min 0 lux -4,2 C 6,9 C
01.04.2007 05:17 6,5 C 6,8 C 5,2 C 44 % 1021 hPa 0,0 l/m 1,1 m/s (1 Bft) N-NO45 30 0 min 0 lux -4,9 C 6,5 C
01.04.2007 05:22 6,4 C 6,7 C 4,8 C 44 % 1021 hPa 0,0 l/m 0,4 m/s (1 Bft) O-NO45 60 0 min 0 lux -4,9 C 6,4 C
01.04.2007 05:27 6,3 C 6,6 C 4,7 C 45 % 1021 hPa 0,0 l/m 0,0 m/s (0 Bft) O-NO 70 0 min 0 lux -4,7 C 6,3 C
01.04.2007 05:32 6,4 C 6,6 C 4,8 C 45 % 1021 hPa 0,0 l/m 1,8 m/s (2 Bft) NO22.5 55 0 min 0 lux -4,6 C 6,3 C
01.04.2007 05:37 5,9 C 6,5 C 4,6 C 47 % 1022 hPa 0,0 l/m 0,0 m/s (0 Bft) W-SW 255 0 min 0 lux -4,5 C 5,9 C
01.04.2007 05:42 5,9 C 6,4 C 4,4 C 47 % 1022 hPa 0,0 l/m 0,1 m/s (0 Bft) W-NW22.5 285 0 min 0 lux -4,5 C 5,9 C
01.04.2007 05:47 5,7 C 6,3 C 4,3 C 48 % 1022 hPa 0,0 l/m 0,0 m/s (0 Bft) NW22.5 325 0 min 0 lux -4,4 C 5,7 C
01.04.2007 05:52 5,5 C 6,2 C 4,3 C 49 % 1022 hPa 0,0 l/m 0,0 m/s (0 Bft) N-NW 330 0 min 0 lux -4,3 C 5,5 C
01.04.2007 05:57 5,3 C 6,0 C 4,0 C 50 % 1022 hPa 0,0 l/m 1,6 m/s (2 Bft) NO22.5 50 0 min 0 lux -4,3 C 5,3 C
01.04.2007 06:02 5,6 C 6,0 C 4,3 C 50 % 1022 hPa 0,0 l/m 1,6 m/s (2 Bft) N-NO22.5 25 0 min 0 lux -4,0 C 5,6 C
01.04.2007 06:07 5,5 C 5,8 C 4,2 C 50 % 1022 hPa 0,0 l/m 2,4 m/s (2 Bft) NO45 45 0 min 0 lux -4,1 C 3,7 C
01.04.2007 06:12 5,5 C 5,7 C 4,2 C 49 % 1022 hPa 0,0 l/m 2,3 m/s (2 Bft) O-NO22.5 65 0 min 0 lux -4,3 C 4,0 C
01.04.2007 06:17 5,4 C 5,7 C 4,1 C 49 % 1022 hPa 0,0 l/m 1,4 m/s (1 Bft) O-NO22.5 60 0 min 0 lux -4,4 C 5,4 C
01.04.2007 06:22 5,4 C 5,6 C 3,9 C 48 % 1022 hPa 0,0 l/m 1,7 m/s (2 Bft) O-NO22.5 75 0 min 0 lux -4,7 C 5,4 C
01.04.2007 06:27 5,9 C 5,5 C 3,9 C 47 % 1022 hPa 0,0 l/m 2,3 m/s (2 Bft) O22.5 80 0 min 0 lux -4,5 C 4,3 C
01.04.2007 06:32 5,9 C 5,4 C 4,1 C 46 % 1022 hPa 0,0 l/m 2,6 m/s (2 Bft) O-SO45 105 0 min 0 lux -4,8 C 3,5 C
01.04.2007 06:37 5,7 C 5,4 C 4,3 C 46 % 1022 hPa 0,0 l/m 4,2 m/s (3 Bft) O22.5 85 0 min 0 lux -5,0 C -0,1 C
01.04.2007 06:42 6,5 C 5,4 C 4,8 C 44 % 1022 hPa 0,0 l/m 2,8 m/s (2 Bft) O22.5 90 0 min 0 lux -4,9 C 3,7 C
01.04.2007 06:47 6,3 C 5,5 C 4,3 C 43 % 1022 hPa 0,0 l/m 4,2 m/s (3 Bft) O22.5 90 0 min 44 lux -5,3 C 0,7 C
01.04.2007 06:52 6,7 C 5,6 C 5,0 C 42 % 1022 hPa 0,0 l/m 6,6 m/s (4 Bft) O-NO45 75 0 min 88 lux -5,3 C -2,2 C
01.04.2007 06:57 6,5 C 5,8 C 4,7 C 42 % 1022 hPa 0,0 l/m 4,5 m/s (3 Bft) O67.5 80 0 min 167 lux -5,5 C 0,4 C
01.04.2007 07:02 6,6 C 5,8 C 5,0 C 41 % 1022 hPa 0,0 l/m 3,7 m/s (3 Bft) O22.5 85 0 min 294 lux -5,7 C 1,8 C
01.04.2007 07:07 6,7 C 5,9 C 4,9 C 41 % 1022 hPa 0,0 l/m 5,1 m/s (3 Bft) O22.5 85 0 min 484 lux -5,6 C -0,4 C
01.04.2007 07:12 6,6 C 6,0 C 5,0 C 41 % 1022 hPa 0,0 l/m 5,2 m/s (3 Bft) O45 85 0 min 750 lux -5,7 C -0,6 C
01.04.2007 07:17 6,4 C 6,0 C 4,8 C 42 % 1023 hPa 0,0 l/m 3,7 m/s (3 Bft) O-NO22.5 75 0 min 914 lux -5,6 C 1,6 C
01.04.2007 07:22 6,3 C 6,0 C 4,6 C 42 % 1023 hPa 0,0 l/m 4,0 m/s (3 Bft) O45 80 0 min 1,52 klux -5,6 C 1,0 C
01.04.2007 07:27 6,5 C 6,0 C 5,0 C 42 % 1023 hPa 0,0 l/m 5,1 m/s (3 Bft) O22.5 95 0 min 1,86 klux -5,5 C -0,6 C
01.04.2007 07:32 6,8 C 6,0 C 5,0 C 41 % 1023 hPa 0,0 l/m 4,6 m/s (3 Bft) O22.5 100 0 min 2,49 klux -5,5 C 0,6 C
01.04.2007 07:37 6,7 C 6,0 C 5,1 C 41 % 1023 hPa 0,0 l/m 3,6 m/s (3 Bft) O-SO22.5 105 0 min 3,55 klux -5,6 C 2,1 C
01.04.2007 07:42 6,9 C 6,0 C 5,2 C 40 % 1023 hPa 0,0 l/m 4,6 m/s (3 Bft) O22.5 100 0 min 4,00 klux -5,7 C 0,7 C
01.04.2007 07:47 6,9 C 6,0 C 5,3 C 40 % 1023 hPa 0,0 l/m 3,9 m/s (3 Bft) O45 90 0 min 5,34 klux -5,7 C 1,8 C
01.04.2007 07:52 7,3 C 6,1 C 5,5 C 38 % 1023 hPa 0,0 l/m 4,4 m/s (3 Bft) O22.5 95 0 min 6,38 klux -6,1 C 1,4 C
01.04.2007 07:57 7,4 C 6,2 C 5,6 C 38 % 1023 hPa 0,0 l/m 5,9 m/s (4 Bft) O45 90 0 min 7,40 klux -6,0 C -0,5 C
01.04.2007 08:02 7,5 C 6,2 C 5,7 C 37 % 1023 hPa 0,0 l/m 6,2 m/s (4 Bft) O45 90 0 min 8,42 klux -6,2 C -0,8 C
01.04.2007 08:07 7,6 C 6,3 C 6,0 C 37 % 1023 hPa 0,0 l/m 6,5 m/s (4 Bft) O45 95 0 min 8,92 klux -6,1 C -0,9 C
01.04.2007 08:12 7,6 C 6,5 C 5,9 C 36 % 1023 hPa 0,0 l/m 6,2 m/s (4 Bft) O45 95 0 min 10,6 klux -6,5 C -0,6 C
01.04.2007 08:17 7,5 C 6,5 C 6,1 C 37 % 1023 hPa 0,0 l/m 6,0 m/s (4 Bft) O45 90 0 min 12,2 klux -6,2 C -0,5 C
01.04.2007 08:22 7,5 C 6,7 C 6,2 C 37 % 1023 hPa 0,0 l/m 8,1 m/s (5 Bft) O67.5 95 0 min 12,3 klux -6,2 C -2,6 C
01.04.2007 08:27 7,5 C 6,8 C 6,3 C 37 % 1023 hPa 0,0 l/m 8,0 m/s (5 Bft) O45 100 0 min 10,2 klux -6,2 C -2,6 C
01.04.2007 08:32 7,6 C 6,9 C 6,4 C 37 % 1023 hPa 0,0 l/m 7,0 m/s (4 Bft) O45 100 0 min 15,1 klux -6,1 C -1,4 C
01.04.2007 08:37 7,8 C 7,0 C 6,7 C 37 % 1023 hPa 0,0 l/m 7,9 m/s (4 Bft) O45 95 0 min 16,0 klux -6,0 C -2,1 C
01.04.2007 08:42 7,8 C 7,2 C 6,6 C 37 % 1023 hPa 0,0 l/m 7,3 m/s (4 Bft) O45 100 0 min 11,3 klux -6,0 C -1,5 C
01.04.2007 08:47 7,8 C 7,2 C 6,7 C 37 % 1024 hPa 0,0 l/m 7,3 m/s (4 Bft) O45 95 0 min 17,9 klux -6,0 C -1,5 C
01.04.2007 08:52 8,1 C 7,3 C 7,0 C 36 % 1024 hPa 0,0 l/m 7,8 m/s (4 Bft) O45 80 0 min 20,0 klux -6,1 C -1,6 C
01.04.2007 08:57 8,4 C 7,5 C 7,2 C 36 % 1024 hPa 0,0 l/m 4,9 m/s (3 Bft) O-NO45 75 0 min 22,6 klux -5,8 C 2,1 C
01.04.2007 09:02 8,5 C 7,7 C 7,3 C 35 % 1024 hPa 0,0 l/m 7,1 m/s (4 Bft) O45 95 5 min 23,9 klux -6,1 C -0,3 C
01.04.2007 09:07 8,7 C 7,7 C 7,4 C 35 % 1024 hPa 0,0 l/m 6,8 m/s (4 Bft) O45 90 5 min 24,9 klux -5,9 C 0,2 C
01.04.2007 09:12 9,1 C 8,0 C 7,6 C 35 % 1024 hPa 0,0 l/m 7,0 m/s (4 Bft) O45 100 0 min 25,4 klux -5,5 C 0,5 C
01.04.2007 09:17 9,1 C 8,1 C 7,7 C 33 % 1024 hPa 0,0 l/m 7,7 m/s (4 Bft) O45 95 0 min 26,5 klux -6,3 C -0,1 C
01.04.2007 09:22 9,2 C 8,3 C 7,7 C 32 % 1024 hPa 0,0 l/m 7,8 m/s (4 Bft) O67.5 90 0 min 27,4 klux -6,6 C -0,0 C
01.04.2007 09:27 9,2 C 8,4 C 7,9 C 32 % 1024 hPa 0,0 l/m 8,0 m/s (4 Bft) O22.5 90 0 min 27,2 klux -6,6 C -0,2 C
01.04.2007 09:32 9,3 C 8,5 C 7,9 C 33 % 1024 hPa 0,0 l/m 6,7 m/s (4 Bft) O45 100 5 min 30,5 klux -6,1 C 1,2 C
01.04.2007 09:37 9,6 C 8,7 C 8,2 C 32 % 1024 hPa 0,0 l/m 6,5 m/s (4 Bft) O45 95 5 min 32,3 klux -6,3 C 1,8 C
01.04.2007 09:42 9,7 C 8,8 C 8,3 C 31 % 1024 hPa 0,0 l/m 7,6 m/s (4 Bft) O-SO45 105 5 min 33,8 klux -6,6 C 0,8 C
01.04.2007 09:47 9,7 C 9,0 C 8,4 C 31 % 1024 hPa 0,0 l/m 6,8 m/s (4 Bft) O45 100 5 min 35,2 klux -6,6 C 1,6 C
01.04.2007 09:52 10,1 C 9,2 C 8,6 C 31 % 1024 hPa 0,0 l/m 6,6 m/s (4 Bft) O45 90 5 min 35,4 klux -6,2 C 2,3 C
01.04.2007 09:57 10,1 C 9,4 C 8,8 C 30 % 1024 hPa 0,0 l/m 7,6 m/s (4 Bft) O22.5 95 5 min 37,9 klux -6,7 C 1,4 C
01.04.2007 10:02 10,5 C 9,5 C 8,9 C 30 % 1024 hPa 0,0 l/m 6,1 m/s (4 Bft) O45 100 5 min 38,2 klux -6,3 C 3,3 C
01.04.2007 10:07 10,7 C 9,7 C 9,2 C 30 % 1024 hPa 0,0 l/m 5,8 m/s (4 Bft) O45 90 5 min 37,6 klux -6,1 C 3,9 C
01.04.2007 10:12 10,5 C 9,8 C 9,1 C 28 % 1024 hPa 0,0 l/m 5,8 m/s (4 Bft) O-SO45 105 5 min 37,9 klux -7,2 C 3,7 C
01.04.2007 10:17 10,5 C 10,0 C 9,1 C 28 % 1024 hPa 0,0 l/m 7,6 m/s (4 Bft) O-NO67.5 75 0 min 26,0 klux -7,2 C 2,0 C
01.04.2007 10:22 10,3 C 10,1 C 9,0 C 29 % 1024 hPa 0,0 l/m 7,8 m/s (4 Bft) O67.5 95 0 min 21,4 klux -6,9 C 1,5 C
01.04.2007 10:27 10,3 C 10,2 C 9,2 C 30 % 1025 hPa 0,0 l/m 5,6 m/s (4 Bft) O-NO67.5 70 0 min 28,4 klux -6,5 C 3,6 C
01.04.2007 10:32 10,7 C 10,2 C 9,3 C 30 % 1025 hPa 0,0 l/m 6,3 m/s (4 Bft) O45 100 0 min 39,6 klux -6,1 C 3,4 C
01.04.2007 10:37 10,8 C 10,5 C 9,6 C 30 % 1025 hPa 0,0 l/m 8,1 m/s (5 Bft) O67.5 85 5 min 42,5 klux -6,1 C 2,0 C
01.04.2007 10:42 10,9 C 10,7 C 9,7 C 27 % 1025 hPa 0,0 l/m 8,5 m/s (5 Bft) O22.5 100 0 min 37,4 klux -7,3 C 1,8 C
01.04.2007 10:47 11,1 C 11,0 C 9,9 C 27 % 1025 hPa 0,0 l/m 6,1 m/s (4 Bft) O45 95 5 min 48,5 klux -7,2 C 4,2 C
01.04.2007 10:52 11,5 C 11,1 C 10,0 C 28 % 1025 hPa 0,0 l/m 7,1 m/s (4 Bft) O-SO45 115 5 min 43,1 klux -6,4 C 3,7 C
01.04.2007 10:57 11,7 C 11,4 C 10,4 C 26 % 1025 hPa 0,0 l/m 7,3 m/s (4 Bft) O45 95 5 min 50,6 klux -7,1 C 3,9 C
01.04.2007 11:02 11,9 C 12,3 C 10,5 C 26 % 1025 hPa 0,0 l/m 6,6 m/s (4 Bft) O-SO45 105 0 min 36,6 klux -7,0 C 4,7 C
01.04.2007 11:07 11,8 C 13,0 C 10,5 C 25 % 1025 hPa 0,0 l/m 8,5 m/s (5 Bft) O45 100 0 min 28,6 klux -7,6 C 3,1 C
01.04.2007 11:12 12,0 C 13,7 C 11,0 C 25 % 1025 hPa 0,0 l/m 8,5 m/s (5 Bft) O-NO67.5 70 5 min 50,3 klux -7,4 C 3,4 C
01.04.2007 11:17 12,4 C 14,5 C 11,1 C 23 % 1025 hPa 0,0 l/m 8,8 m/s (5 Bft) O45 100 5 min 51,4 klux -8,1 C 3,7 C
01.04.2007 11:22 12,5 C 15,0 C 11,7 C 21 % 1025 hPa 0,0 l/m 9,4 m/s (5 Bft) O-SO22.5 105 5 min 51,2 klux -9,2 C 3,5 C
01.04.2007 11:27 12,6 C 15,6 C 11,9 C 20 % 1025 hPa 0,0 l/m 9,3 m/s (5 Bft) O45 90 5 min 52,8 klux -9,7 C 3,7 C
01.04.2007 11:32 12,9 C 16,1 C 12,6 C 20 % 1025 hPa 0,0 l/m 8,7 m/s (5 Bft) O67.5 90 5 min 53,2 klux -9,5 C 4,5 C
01.04.2007 11:37 13,4 C 17,1 C 13,4 C 21 % 1025 hPa 0,0 l/m 6,9 m/s (4 Bft) O-NO45 70 5 min 53,6 klux -8,5 C 6,5 C
01.04.2007 11:42 13,3 C 17,3 C 13,3 C 20 % 1025 hPa 0,0 l/m 7,9 m/s (4 Bft) O45 80 5 min 54,1 klux -9,2 C 5,6 C
01.04.2007 11:47 13,2 C 17,9 C 13,4 C 20 % 1025 hPa 0,0 l/m 8,0 m/s (4 Bft) O45 90 5 min 54,9 klux -9,2 C 5,4 C
01.04.2007 11:52 13,2 C 18,0 C 13,5 C 20 % 1025 hPa 0,0 l/m 9,8 m/s (5 Bft) O45 85 5 min 55,2 klux -9,2 C 4,3 C
01.04.2007 11:57 13,4 C 18,1 C 14,3 C 20 % 1025 hPa 0,0 l/m 8,6 m/s (5 Bft) O67.5 80 5 min 55,7 klux -9,1 C 5,2 C
01.04.2007 12:02 13,4 C 18,3 C 14,1 C 20 % 1025 hPa 0,0 l/m 8,9 m/s (5 Bft) O22.5 90 5 min 56,8 klux -9,1 C 5,1 C
01.04.2007 12:07 13,7 C 18,5 C 15,0 C 20 % 1025 hPa 0,0 l/m 8,8 m/s (5 Bft) O-NO67.5 75 5 min 57,2 klux -8,8 C 5,6 C
01.04.2007 12:12 13,5 C 19,4 C 15,0 C 20 % 1025 hPa 0,0 l/m 7,1 m/s (4 Bft) O-NO45 70 5 min 57,5 klux -9,0 C 6,4 C
01.04.2007 12:17 14,2 C 19,7 C 15,3 C 20 % 1025 hPa 0,0 l/m 8,3 m/s (5 Bft) O45 80 5 min 58,3 klux -8,4 C 6,6 C
01.04.2007 12:22 14,0 C 20,1 C 15,5 C 20 % 1025 hPa 0,0 l/m 7,4 m/s (4 Bft) O-NO67.5 70 5 min 58,4 klux -8,6 C 6,9 C
01.04.2007 12:27 13,7 C 20,1 C 15,3 C 20 % 1025 hPa 0,0 l/m 11,2 m/s (6 Bft) O67.5 90 5 min 58,5 klux -8,8 C 4,3 C
01.04.2007 12:32 13,8 C 20,1 C 15,5 C 20 % 1025 hPa 0,0 l/m 8,5 m/s (5 Bft) O45 100 5 min 59,1 klux -8,7 C 5,9 C
01.04.2007 12:37 14,1 C 20,5 C 15,7 C 20 % 1025 hPa 0,0 l/m 8,4 m/s (5 Bft) O-NO67.5 65 5 min 59,0 klux -8,5 C 6,4 C
01.04.2007 12:42 14,2 C 20,5 C 15,7 C 20 % 1025 hPa 0,0 l/m 8,0 m/s (4 Bft) O67.5 95 5 min 59,1 klux -8,4 C 6,8 C
01.04.2007 12:47 14,2 C 20,8 C 15,8 C 20 % 1025 hPa 0,0 l/m 9,8 m/s (5 Bft) O45 90 5 min 59,6 klux -8,4 C 5,7 C
01.04.2007 12:52 14,0 C 20,8 C 15,8 C 20 % 1025 hPa 0,0 l/m 9,1 m/s (5 Bft) O-NO67.5 60 5 min 60,3 klux -8,6 C 5,8 C
01.04.2007 12:57 14,6 C 21,3 C 16,2 C 20 % 1025 hPa 0,0 l/m 8,1 m/s (5 Bft) O-NO67.5 60 5 min 60,8 klux -8,1 C 7,3 C
01.04.2007 13:02 14,8 C 22,0 C 16,3 C 20 % 1025 hPa 0,0 l/m 6,0 m/s (4 Bft) O-NO45 65 5 min 60,7 klux -7,9 C 9,1 C
01.04.2007 13:07 14,6 C 22,0 C 15,7 C 20 % 1025 hPa 0,0 l/m 7,5 m/s (4 Bft) O-NO45 60 5 min 61,1 klux -8,1 C 7,7 C
01.04.2007 13:12 15,1 C 22,3 C 16,0 C 20 % 1025 hPa 0,0 l/m 6,9 m/s (4 Bft) NO67.5 55 5 min 61,3 klux -7,7 C 8,8 C
01.04.2007 13:17 14,6 C 22,3 C 15,4 C 20 % 1025 hPa 0,0 l/m 7,9 m/s (4 Bft) O67.5 85 5 min 61,3 klux -8,1 C 7,4 C
01.04.2007 13:22 14,9 C 22,7 C 15,0 C 20 % 1025 hPa 0,0 l/m 6,3 m/s (4 Bft) NO67.5 40 5 min 61,6 klux -7,8 C 9,0 C
01.04.2007 13:27 14,6 C 22,6 C 15,1 C 20 % 1025 hPa 0,0 l/m 8,9 m/s (5 Bft) O45 100 5 min 62,2 klux -8,1 C 6,8 C
01.04.2007 13:32 14,8 C 22,7 C 14,7 C 20 % 1024 hPa 0,0 l/m 8,0 m/s (4 Bft) O45 95 5 min 62,2 klux -7,9 C 7,6 C
01.04.2007 13:37 15,1 C 23,2 C 15,1 C 20 % 1024 hPa 0,0 l/m 6,5 m/s (4 Bft) NO67.5 50 5 min 62,0 klux -7,7 C 9,1 C
01.04.2007 13:42 15,2 C 23,3 C 14,9 C 20 % 1024 hPa 0,0 l/m 8,9 m/s (5 Bft) O-NO67.5 70 5 min 61,9 klux -7,6 C 7,6 C
01.04.2007 13:47 15,4 C 23,2 C 14,9 C 20 % 1025 hPa 0,0 l/m 7,1 m/s (4 Bft) NO67.5 50 5 min 62,4 klux -7,4 C 9,1 C
01.04.2007 13:52 14,7 C 23,3 C 14,8 C 20 % 1025 hPa 0,0 l/m 6,8 m/s (4 Bft) O67.5 85 5 min 61,9 klux -8,0 C 8,3 C
01.04.2007 13:57 15,2 C 23,2 C 14,8 C 20 % 1025 hPa 0,0 l/m 7,4 m/s (4 Bft) O67.5 85 5 min 61,6 klux -7,6 C 8,6 C
01.04.2007 14:02 15,0 C 23,5 C 14,7 C 20 % 1025 hPa 0,0 l/m 6,3 m/s (4 Bft) O-NO67.5 65 5 min 62,1 klux -7,8 C 9,1 C
01.04.2007 14:07 15,0 C 23,6 C 14,4 C 20 % 1025 hPa 0,0 l/m 9,5 m/s (5 Bft) O67.5 90 5 min 61,6 klux -7,8 C 7,1 C
01.04.2007 14:12 15,1 C 23,3 C 14,4 C 20 % 1025 hPa 0,0 l/m 10,1 m/s (5 Bft) O22.5 95 5 min 61,7 klux -7,7 C 6,9 C
01.04.2007 14:17 15,0 C 23,1 C 14,2 C 20 % 1025 hPa 0,0 l/m 8,7 m/s (5 Bft) O-SO22.5 105 5 min 61,3 klux -7,8 C 7,5 C
01.04.2007 14:22 15,0 C 23,4 C 14,3 C 20 % 1025 hPa 0,0 l/m 8,8 m/s (5 Bft) O45 90 5 min 60,5 klux -7,8 C 7,4 C
01.04.2007 14:27 15,2 C 23,1 C 14,1 C 20 % 1025 hPa 0,0 l/m 9,4 m/s (5 Bft) O45 90 5 min 60,1 klux -7,6 C 7,4 C
01.04.2007 14:32 15,5 C 23,5 C 14,4 C 20 % 1025 hPa 0,0 l/m 7,3 m/s (4 Bft) O45 95 5 min 59,1 klux -7,3 C 9,0 C
01.04.2007 14:37 15,5 C 24,0 C 14,3 C 20 % 1025 hPa 0,0 l/m 8,1 m/s (5 Bft) O45 85 5 min 59,4 klux -7,3 C 8,5 C
01.04.2007 14:42 15,6 C 24,0 C 14,4 C 20 % 1025 hPa 0,0 l/m 7,9 m/s (4 Bft) O45 85 5 min 58,9 klux -7,3 C 8,8 C
01.04.2007 14:47 15,5 C 24,2 C 14,5 C 20 % 1025 hPa 0,0 l/m 7,3 m/s (4 Bft) NO45 45 5 min 59,3 klux -7,3 C 9,1 C
01.04.2007 14:52 15,4 C 24,6 C 14,5 C 20 % 1025 hPa 0,0 l/m 8,4 m/s (5 Bft) NO67.5 40 5 min 58,9 klux -7,4 C 8,2 C
01.04.2007 14:57 15,6 C 24,6 C 14,4 C 20 % 1025 hPa 0,0 l/m 8,4 m/s (5 Bft) NO67.5 40 5 min 57,3 klux -7,3 C 8,5 C
01.04.2007 15:02 15,6 C 24,7 C 14,3 C 20 % 1025 hPa 0,0 l/m 8,3 m/s (5 Bft) O-NO67.5 75 5 min 56,7 klux -7,3 C 8,5 C
01.04.2007 15:07 15,4 C 24,6 C 14,2 C 20 % 1025 hPa 0,0 l/m 9,9 m/s (5 Bft) O-SO45 105 5 min 56,4 klux -7,4 C 7,4 C
01.04.2007 15:12 15,5 C 24,2 C 14,2 C 20 % 1025 hPa 0,0 l/m 9,9 m/s (5 Bft) O-SO45 105 5 min 55,6 klux -7,3 C 7,6 C
01.04.2007 15:16 16,0 C 24,7 C 14,4 C 20 % 1025 hPa 0,0 l/m 7,7 m/s (4 Bft) O67.5 80 4 min 55,7 klux -6,9 C 9,5 C
01.04.2007 15:21 16,1 C 24,7 C 14,4 C 20 % 1025 hPa 0,0 l/m 6,1 m/s (4 Bft) O45 80 5 min 54,9 klux -6,8 C 10,7 C
01.04.2007 15:26 15,5 C 25,2 C 14,2 C 20 % 1025 hPa 0,0 l/m 9,0 m/s (5 Bft) O-NO67.5 75 5 min 54,5 klux -7,3 C 8,0 C
01.04.2007 15:32 15,8 C 25,6 C 14,2 C 20 % 1025 hPa 0,0 l/m 6,5 m/s (4 Bft) NO67.5 45 6 min 54,2 klux -7,1 C 10,0 C
01.04.2007 15:37 16,0 C 25,7 C 14,6 C 20 % 1025 hPa 0,0 l/m 8,6 m/s (5 Bft) O22.5 95 5 min 53,3 klux -6,9 C 8,9 C
01.04.2007 15:42 15,6 C 25,5 C 14,2 C 20 % 1025 hPa 0,0 l/m 8,1 m/s (5 Bft) O45 85 5 min 51,9 klux -7,3 C 8,7 C
01.04.2007 15:47 15,8 C 25,6 C 14,3 C 20 % 1025 hPa 0,0 l/m 7,1 m/s (4 Bft) O-SO45 115 5 min 51,0 klux -7,1 C 9,6 C
01.04.2007 15:52 16,0 C 25,4 C 14,3 C 20 % 1025 hPa 0,0 l/m 7,8 m/s (4 Bft) O-SO22.5 105 5 min 50,8 klux -6,9 C 9,4 C
01.04.2007 15:57 16,0 C 25,3 C 14,4 C 20 % 1025 hPa 0,0 l/m 6,0 m/s (4 Bft) O-SO22.5 105 5 min 49,6 klux -6,9 C 10,7 C
01.04.2007 16:02 15,9 C 25,4 C 14,5 C 20 % 1025 hPa 0,0 l/m 8,5 m/s (5 Bft) O22.5 95 5 min 48,9 klux -7,0 C 8,8 C
01.04.2007 16:07 16,0 C 25,3 C 14,5 C 20 % 1025 hPa 0,0 l/m 7,9 m/s (4 Bft) O-SO67.5 105 5 min 48,1 klux -6,9 C 9,4 C
01.04.2007 16:12 16,0 C 25,3 C 14,2 C 20 % 1024 hPa 0,0 l/m 6,8 m/s (4 Bft) O-NO45 75 5 min 47,2 klux -6,9 C 10,1 C
01.04.2007 16:17 16,1 C 25,1 C 14,3 C 20 % 1024 hPa 0,0 l/m 6,8 m/s (4 Bft) O45 80 5 min 45,8 klux -6,8 C 10,2 C
01.04.2007 16:22 15,8 C 25,2 C 14,2 C 20 % 1024 hPa 0,0 l/m 7,3 m/s (4 Bft) O-NO45 65 5 min 44,9 klux -7,1 C 9,4 C
01.04.2007 16:27 15,9 C 25,1 C 14,1 C 20 % 1024 hPa 0,0 l/m 5,1 m/s (3 Bft) O-SO45 110 5 min 44,7 klux -7,0 C 11,3 C
01.04.2007 16:32 16,1 C 25,3 C 14,3 C 20 % 1024 hPa 0,0 l/m 5,6 m/s (4 Bft) O67.5 85 5 min 43,8 klux -6,8 C 11,1 C
01.04.2007 16:37 15,8 C 24,8 C 14,2 C 20 % 1025 hPa 0,0 l/m 8,9 m/s (5 Bft) O45 85 5 min 42,5 klux -7,1 C 8,5 C
01.04.2007 16:42 15,8 C 24,5 C 14,3 C 20 % 1025 hPa 0,0 l/m 8,1 m/s (5 Bft) NO67.5 45 5 min 41,6 klux -7,1 C 9,0 C
01.04.2007 16:47 16,0 C 24,6 C 14,3 C 20 % 1025 hPa 0,0 l/m 5,4 m/s (3 Bft) O-NO45 70 5 min 40,8 klux -6,9 C 11,1 C
01.04.2007 16:52 15,7 C 24,2 C 14,1 C 20 % 1024 hPa 0,0 l/m 8,7 m/s (5 Bft) O45 85 5 min 39,6 klux -7,2 C 8,5 C
01.04.2007 16:57 15,8 C 23,9 C 14,2 C 20 % 1024 hPa 0,0 l/m 6,6 m/s (4 Bft) O-NO45 75 5 min 38,6 klux -7,1 C 10,0 C
01.04.2007 17:02 15,9 C 24,0 C 14,1 C 20 % 1024 hPa 0,0 l/m 6,6 m/s (4 Bft) O45 90 5 min 37,8 klux -7,0 C 10,1 C
01.04.2007 17:07 15,8 C 23,7 C 14,2 C 20 % 1024 hPa 0,0 l/m 9,1 m/s (5 Bft) O45 80 5 min 35,9 klux -7,1 C 8,4 C
01.04.2007 17:12 15,9 C 23,7 C 14,2 C 20 % 1024 hPa 0,0 l/m 5,9 m/s (4 Bft) O-NO67.5 65 5 min 35,2 klux -7,0 C 10,6 C
01.04.2007 17:17 15,7 C 23,4 C 14,0 C 20 % 1025 hPa 0,0 l/m 8,8 m/s (5 Bft) O22.5 95 5 min 34,0 klux -7,2 C 8,4 C
01.04.2007 17:22 15,8 C 23,4 C 14,0 C 20 % 1025 hPa 0,0 l/m 7,5 m/s (4 Bft) NO45 50 5 min 33,7 klux -7,1 C 9,3 C
01.04.2007 17:27 15,6 C 23,2 C 13,9 C 20 % 1025 hPa 0,0 l/m 8,4 m/s (5 Bft) O67.5 80 5 min 32,8 klux -7,3 C 8,5 C
01.04.2007 17:32 15,6 C 23,0 C 13,8 C 20 % 1025 hPa 0,0 l/m 8,7 m/s (5 Bft) O67.5 90 5 min 31,6 klux -7,3 C 8,3 C
01.04.2007 17:37 15,4 C 22,7 C 13,9 C 20 % 1025 hPa 0,0 l/m 7,6 m/s (4 Bft) O-NO67.5 75 5 min 30,0 klux -7,4 C 8,7 C
01.04.2007 17:42 15,6 C 22,3 C 13,8 C 20 % 1025 hPa 0,0 l/m 5,6 m/s (4 Bft) O45 90 5 min 28,2 klux -7,3 C 10,5 C
01.04.2007 17:47 15,4 C 22,1 C 13,8 C 20 % 1025 hPa 0,0 l/m 8,8 m/s (5 Bft) O-NO45 75 5 min 26,7 klux -7,4 C 8,0 C
01.04.2007 17:52 15,5 C 21,9 C 13,7 C 20 % 1025 hPa 0,0 l/m 8,8 m/s (5 Bft) O-NO45 75 5 min 25,7 klux -7,3 C 8,1 C
01.04.2007 17:57 15,5 C 21,7 C 13,7 C 20 % 1025 hPa 0,0 l/m 6,6 m/s (4 Bft) O45 80 5 min 25,7 klux -7,3 C 9,5 C
01.04.2007 18:02 15,2 C 21,3 C 13,7 C 20 % 1025 hPa 0,0 l/m 8,4 m/s (5 Bft) O45 90 5 min 23,7 klux -7,6 C 7,9 C
01.04.2007 18:07 15,3 C 21,1 C 13,9 C 20 % 1025 hPa 0,0 l/m 5,4 m/s (3 Bft) O45 95 5 min 22,6 klux -7,5 C 10,3 C
01.04.2007 18:12 15,2 C 20,8 C 14,0 C 20 % 1025 hPa 0,0 l/m 7,7 m/s (4 Bft) O-NO67.5 75 0 min 21,3 klux -7,6 C 8,4 C
01.04.2007 18:17 15,0 C 20,4 C 13,9 C 20 % 1025 hPa 0,0 l/m 7,7 m/s (4 Bft) O45 85 0 min 19,5 klux -7,8 C 8,1 C
01.04.2007 18:22 15,0 C 19,9 C 13,8 C 20 % 1025 hPa 0,0 l/m 8,5 m/s (5 Bft) O45 95 0 min 17,6 klux -7,8 C 7,6 C
01.04.2007 18:27 14,9 C 19,7 C 13,8 C 22 % 1025 hPa 0,0 l/m 7,9 m/s (4 Bft) O67.5 90 0 min 16,8 klux -6,6 C 7,8 C
01.04.2007 18:32 14,8 C 19,4 C 13,8 C 23 % 1025 hPa 0,0 l/m 6,8 m/s (4 Bft) O67.5 80 0 min 15,1 klux -6,1 C 8,4 C
01.04.2007 18:37 14,7 C 19,1 C 13,6 C 23 % 1025 hPa 0,0 l/m 6,6 m/s (4 Bft) O45 80 0 min 13,8 klux -6,2 C 8,5 C
01.04.2007 18:42 14,6 C 18,8 C 13,6 C 23 % 1025 hPa 0,0 l/m 6,4 m/s (4 Bft) O45 90 0 min 12,4 klux -6,3 C 8,5 C
01.04.2007 18:47 14,6 C 18,5 C 13,5 C 23 % 1025 hPa 0,0 l/m 4,0 m/s (3 Bft) O-NO45 65 0 min 11,2 klux -6,3 C 10,9 C
01.04.2007 18:52 14,6 C 18,2 C 13,3 C 23 % 1025 hPa 0,0 l/m 8,7 m/s (5 Bft) O67.5 90 0 min 10,1 klux -6,3 C 6,9 C
01.04.2007 18:57 14,5 C 17,5 C 13,2 C 24 % 1025 hPa 0,0 l/m 4,3 m/s (3 Bft) NO67.5 50 0 min 9,6 klux -5,8 C 10,4 C
01.04.2007 19:02 14,3 C 17,3 C 13,1 C 25 % 1025 hPa 0,0 l/m 4,8 m/s (3 Bft) O-NO45 70 0 min 8,39 klux -5,4 C 9,6 C
01.04.2007 19:07 14,2 C 16,8 C 12,9 C 25 % 1025 hPa 0,0 l/m 3,5 m/s (3 Bft) O-NO22.5 75 0 min 7,41 klux -5,5 C 11,1 C
01.04.2007 19:12 14,1 C 16,3 C 12,7 C 25 % 1025 hPa 0,0 l/m 3,5 m/s (3 Bft) O-NO22.5 75 0 min 6,35 klux -5,6 C 11,0 C
01.04.2007 19:17 13,8 C 16,1 C 12,5 C 26 % 1025 hPa 0,0 l/m 4,5 m/s (3 Bft) O45 80 0 min 5,39 klux -5,4 C 9,3 C
01.04.2007 19:22 13,8 C 15,7 C 12,3 C 26 % 1025 hPa 0,0 l/m 3,4 m/s (2 Bft) O22.5 80 0 min 4,00 klux -5,4 C 10,8 C
01.04.2007 19:27 13,7 C 15,3 C 11,9 C 26 % 1025 hPa 0,0 l/m 4,1 m/s (3 Bft) O45 80 0 min 3,56 klux -5,4 C 9,8 C
01.04.2007 19:32 13,6 C 15,0 C 11,9 C 26 % 1025 hPa 0,0 l/m 4,5 m/s (3 Bft) O-NO22.5 60 0 min 2,36 klux -5,5 C 9,1 C
01.04.2007 19:37 13,5 C 14,9 C 11,7 C 26 % 1025 hPa 0,0 l/m 3,3 m/s (2 Bft) O-NO45 70 0 min 2,05 klux -5,6 C 10,6 C
01.04.2007 19:42 13,3 C 14,5 C 11,4 C 26 % 1025 hPa 0,0 l/m 4,0 m/s (3 Bft) O22.5 80 0 min 1,51 klux -5,8 C 9,4 C
01.04.2007 19:47 13,0 C 14,2 C 11,3 C 27 % 1025 hPa 0,0 l/m 3,7 m/s (3 Bft) O22.5 85 5 min 1,28 klux -5,5 C 9,5 C
01.04.2007 19:52 12,9 C 14,1 C 11,1 C 29 % 1026 hPa 0,0 l/m 3,1 m/s (2 Bft) NO45 50 0 min 878 lux -4,7 C 10,3 C
01.04.2007 19:57 12,9 C 13,8 C 11,2 C 29 % 1026 hPa 0,0 l/m 5,7 m/s (4 Bft) NO67.5 50 0 min 554 lux -4,7 C 6,9 C
01.04.2007 20:02 12,8 C 13,7 C 10,9 C 28 % 1026 hPa 0,0 l/m 3,8 m/s (3 Bft) O-NO45 65 0 min 334 lux -5,2 C 9,1 C
01.04.2007 20:07 12,6 C 13,5 C 10,8 C 29 % 1026 hPa 0,0 l/m 3,8 m/s (3 Bft) O22.5 80 0 min 191 lux -4,9 C 8,9 C
01.04.2007 20:12 12,8 C 13,3 C 10,9 C 29 % 1026 hPa 0,0 l/m 3,9 m/s (3 Bft) O-NO22.5 75 0 min 100 lux -4,8 C 8,9 C
01.04.2007 20:17 12,7 C 13,1 C 10,7 C 29 % 1026 hPa 0,0 l/m 5,2 m/s (3 Bft) O-NO67.5 75 0 min 50 lux -4,9 C 7,2 C
01.04.2007 20:22 12,6 C 12,9 C 10,6 C 29 % 1026 hPa 0,0 l/m 5,3 m/s (3 Bft) O-NO45 65 0 min 26 lux -4,9 C 6,9 C
01.04.2007 20:27 12,9 C 12,9 C 11,0 C 28 % 1026 hPa 0,0 l/m 7,2 m/s (4 Bft) O-NO45 70 0 min 15 lux -5,1 C 5,6 C
01.04.2007 20:32 12,4 C 12,7 C 10,3 C 30 % 1026 hPa 0,0 l/m 4,3 m/s (3 Bft) O-NO22.5 60 0 min 11 lux -4,7 C 7,9 C
01.04.2007 20:37 12,6 C 12,6 C 10,5 C 29 % 1026 hPa 0,0 l/m 6,0 m/s (4 Bft) O45 85 0 min 5 lux -4,9 C 6,2 C
01.04.2007 20:42 12,6 C 12,6 C 10,6 C 29 % 1026 hPa 0,0 l/m 5,2 m/s (3 Bft) O-NO45 60 0 min 4 lux -4,9 C 7,0 C
01.04.2007 20:47 12,6 C 12,5 C 10,5 C 29 % 1026 hPa 0,0 l/m 5,5 m/s (3 Bft) O-NO45 60 0 min 2 lux -4,9 C 6,7 C
01.04.2007 20:52 12,3 C 12,4 C 10,1 C 30 % 1026 hPa 0,0 l/m 3,8 m/s (3 Bft) O-NO45 70 0 min 2 lux -4,8 C 8,5 C
01.04.2007 20:57 12,0 C 12,3 C 9,8 C 30 % 1026 hPa 0,0 l/m 3,8 m/s (3 Bft) O-NO22.5 70 0 min 1 lux -5,0 C 8,1 C
01.04.2007 21:02 11,8 C 12,1 C 9,7 C 32 % 1026 hPa 0,0 l/m 2,8 m/s (2 Bft) O-NO45 60 0 min 0 lux -4,3 C 9,6 C
01.04.2007 21:07 11,8 C 12,0 C 9,8 C 32 % 1026 hPa 0,0 l/m 3,4 m/s (3 Bft) NO67.5 35 0 min 0 lux -4,3 C 8,4 C
01.04.2007 21:12 11,6 C 11,8 C 9,6 C 32 % 1026 hPa 0,0 l/m 2,6 m/s (2 Bft) NO67.5 35 0 min 0 lux -4,5 C 9,7 C
01.04.2007 21:17 11,7 C 11,8 C 9,5 C 32 % 1026 hPa 0,0 l/m 3,2 m/s (2 Bft) NO45 40 0 min 0 lux -4,4 C 8,7 C
01.04.2007 21:22 11,4 C 11,7 C 9,3 C 32 % 1026 hPa 0,0 l/m 2,5 m/s (2 Bft) N-NO45 30 0 min 0 lux -4,7 C 9,6 C
01.04.2007 21:27 11,4 C 11,5 C 9,2 C 33 % 1026 hPa 0,0 l/m 1,8 m/s (2 Bft) N-NO22.5 15 0 min 0 lux -4,3 C 11,4 C
01.04.2007 21:32 11,1 C 11,4 C 9,2 C 33 % 1027 hPa 0,0 l/m 2,7 m/s (2 Bft) NO45 40 0 min 0 lux -4,5 C 8,9 C
01.04.2007 21:37 11,1 C 11,3 C 8,8 C 33 % 1027 hPa 0,0 l/m 3,4 m/s (2 Bft) NO45 45 0 min 0 lux -4,5 C 7,7 C
01.04.2007 21:42 10,8 C 11,1 C 8,8 C 34 % 1027 hPa 0,0 l/m 3,7 m/s (3 Bft) O-NO45 60 0 min 0 lux -4,4 C 6,9 C
01.04.2007 21:47 11,2 C 11,0 C 8,8 C 33 % 1027 hPa 0,0 l/m 4,1 m/s (3 Bft) O-NO45 60 0 min 0 lux -4,5 C 6,6 C
01.04.2007 21:52 11,0 C 11,0 C 8,6 C 32 % 1027 hPa 0,0 l/m 2,1 m/s (2 Bft) NO22.5 40 0 min 0 lux -5,0 C 10,2 C
01.04.2007 21:57 11,0 C 10,9 C 8,7 C 33 % 1027 hPa 0,0 l/m 2,3 m/s (2 Bft) NO45 40 0 min 0 lux -4,6 C 9,8 C
01.04.2007 22:02 10,9 C 10,8 C 8,7 C 32 % 1026 hPa 0,0 l/m 3,4 m/s (3 Bft) O-NO22.5 65 0 min 0 lux -5,1 C 7,4 C
01.04.2007 22:07 10,8 C 10,8 C 8,5 C 33 % 1027 hPa 0,0 l/m 1,9 m/s (2 Bft) O22.5 80 0 min 0 lux -4,8 C 10,6 C
01.04.2007 22:12 10,8 C 10,8 C 8,8 C 32 % 1027 hPa 0,0 l/m 2,3 m/s (2 Bft) O45 80 0 min 0 lux -5,2 C 9,4 C
01.04.2007 22:17 10,9 C 10,7 C 8,6 C 32 % 1027 hPa 0,0 l/m 2,9 m/s (2 Bft) O-NO45 60 0 min 0 lux -5,1 C 8,4 C
01.04.2007 22:22 10,8 C 10,6 C 8,4 C 32 % 1027 hPa 0,0 l/m 2,9 m/s (2 Bft) O-NO22.5 75 0 min 0 lux -5,2 C 8,2 C
01.04.2007 22:27 10,8 C 10,5 C 8,5 C 32 % 1027 hPa 0,0 l/m 3,6 m/s (3 Bft) O45 80 0 min 0 lux -5,2 C 7,0 C
01.04.2007 22:32 10,5 C 10,4 C 8,2 C 32 % 1027 hPa 0,0 l/m 2,5 m/s (2 Bft) NO45 50 0 min 0 lux -5,5 C 8,7 C
01.04.2007 22:37 10,5 C 10,3 C 8,0 C 32 % 1027 hPa 0,0 l/m 2,4 m/s (2 Bft) O22.5 95 0 min 0 lux -5,5 C 9,1 C
01.04.2007 22:42 10,2 C 10,3 C 8,3 C 33 % 1027 hPa 0,0 l/m 2,1 m/s (2 Bft) O22.5 90 0 min 0 lux -5,3 C 9,5 C
01.04.2007 22:47 10,5 C 10,2 C 8,0 C 32 % 1027 hPa 0,0 l/m 3,1 m/s (2 Bft) O45 85 0 min 0 lux -5,5 C 7,4 C
01.04.2007 22:52 10,5 C 10,2 C 7,9 C 32 % 1027 hPa 0,0 l/m 1,8 m/s (2 Bft) O22.5 85 0 min 0 lux -5,5 C 10,5 C
01.04.2007 22:57 10,3 C 10,1 C 7,7 C 32 % 1027 hPa 0,0 l/m 2,0 m/s (2 Bft) O22.5 95 0 min 0 lux -5,7 C 9,7 C
01.04.2007 23:02 10,3 C 10,0 C 7,8 C 32 % 1027 hPa 0,0 l/m 2,6 m/s (2 Bft) O22.5 90 0 min 0 lux -5,7 C 8,4 C
01.04.2007 23:07 10,5 C 10,0 C 8,0 C 32 % 1027 hPa 0,0 l/m 3,2 m/s (2 Bft) O22.5 85 0 min 0 lux -5,5 C 7,3 C
01.04.2007 23:12 10,5 C 9,9 C 8,0 C 31 % 1027 hPa 0,0 l/m 3,6 m/s (3 Bft) O45 80 0 min 0 lux -5,9 C 6,7 C
01.04.2007 23:17 10,5 C 9,9 C 7,7 C 31 % 1027 hPa 0,0 l/m 1,6 m/s (1 Bft) O22.5 80 0 min 0 lux -5,9 C 10,5 C
01.04.2007 23:22 10,1 C 9,8 C 7,7 C 32 % 1027 hPa 0,0 l/m 2,3 m/s (2 Bft) O22.5 100 0 min 0 lux -5,8 C 8,8 C
01.04.2007 23:27 10,2 C 9,6 C 8,0 C 31 % 1027 hPa 0,0 l/m 2,5 m/s (2 Bft) O45 90 0 min 0 lux -6,2 C 8,4 C
01.04.2007 23:32 9,8 C 9,6 C 7,4 C 33 % 1027 hPa 0,0 l/m 1,3 m/s (1 Bft) O-NO22.5 75 0 min 0 lux -5,7 C 9,8 C
01.04.2007 23:37 9,8 C 9,5 C 7,5 C 33 % 1027 hPa 0,0 l/m 2,6 m/s (2 Bft) O45 90 0 min 0 lux -5,7 C 7,7 C
01.04.2007 23:42 9,4 C 9,5 C 7,4 C 34 % 1027 hPa 0,0 l/m 1,6 m/s (1 Bft) O22.5 85 0 min 0 lux -5,6 C 9,4 C
01.04.2007 23:47 9,4 C 9,3 C 7,6 C 34 % 1027 hPa 0,0 l/m 0,9 m/s (1 Bft) SO 130 0 min 0 lux -5,6 C 9,4 C
01.04.2007 23:52 9,7 C 9,2 C 7,7 C 33 % 1027 hPa 0,0 l/m 2,9 m/s (2 Bft) O45 100 0 min 0 lux -5,8 C 7,1 C
01.04.2007 23:57 9,3 C 9,1 C 7,3 C 33 % 1027 hPa 0,0 l/m 1,9 m/s (2 Bft) O45 90 0 min 0 lux -6,1 C 8,9 C
_ Min-Zeit 05:57 06:32 06:22 11:27 00:02 - 04:47 - - - - 11:27 08:22
Minimum _ 5,3 C 5,4 C 3,9 C 20 % 1019 hPa - 0,0 m/s (0 Bft) - - - - -9,7 C -2,6 C
_ Max-Zeit 15:21 15:37 13:02 05:57 21:32 00:02 12:27 - - 15:32 13:47 00:02 21:27
Maximum _ 16,1 C 25,7 C 16,3 C 50 % 1027 hPa 0,0 l/m 11,2 m/s
O (6 Bft)
- - 6 min 62,4 klux -3,3 C 11,4 C
Durchschnitt _ 11,3 C 13,5 C 9,9 C 31 % 1024 hPa #0,0 l/m 5,4 m/s (3 Bft) O - #8:20 h 19,3 klux -6,0 C 5,9 C